Change the Weather History Date:

Tuesday, October 8, 2013

  Actual Average Record
Temperature  
Mean Temperature 64 °F -  
Max Temperature 66 °F 70 °F 84 °F (2007)
Min Temperature 62 °F 53 °F 44 °F (2001)
Degree Days  
Heating Degree Days 1    
Growing Degree Days 14 (Base 50)    
Moisture  
Dew Point 54 °F    
Average Humidity 71    
Maximum Humidity 90    
Minimum Humidity 60    
Precipitation  
Precipitation 0.00 in - - ()
Sea Level Pressure  
Sea Level Pressure 30.14 in    
Wind  
Wind Speed 19 mph (NE)    
Max Wind Speed 24 mph    
Max Gust Speed 34 mph    
Visibility 10 miles    
Events Rain    
Averages and records for this station are not official NWS values.
T = Trace of Precipitation, MM = Missing Value Source: NWS Daily Summary

Daily Weather History Graph

Daily Weather History Graph

Search for Another Location

Airport or City:

Trip Planner

Search our weather history database for the weather conditions in past years. The results will help you decide how hot, cold, wet, or windy it might be!

Date:

Astronomy

Oct. 08, 2013 Rise Set
Actual Time 7:05 AM EDT 6:36 PM EDT
Civil Twilight 6:39 AM EDT 7:02 PM EDT
Nautical Twilight 6:09 AM EDT 7:32 PM EDT
Astronomical Twilight 5:39 AM EDT 8:02 PM EDT
Moon 10:51 AM EDT (10/8) 9:17 PM EDT (10/8)
Length of Visible Light 12h 23m
Length of Day
11h 31m
Waxing Crescent, 16% of the Moon is Illuminated
Oct 8
Waxing Crescent
Oct 11
First Quarter
Oct 18
Full
Oct 26
Last Quarter
Nov 3
New

Hourly Weather History & Observations

Time (EDT) Temp. Dew Point Humidity Pressure Visibility Wind Dir Wind Speed Gust Speed Precip Events Conditions
12:56 AM 66.0 °F 63.0 °F 90% 30.01 in 10.0 mi North 16.1 mph - N/A   Overcast
1:56 AM 66.0 °F 59.0 °F 78% 30.02 in 10.0 mi NE 17.3 mph 26.5 mph N/A   Overcast
2:56 AM 64.9 °F 53.1 °F 65% 30.04 in 10.0 mi NNE 24.2 mph 29.9 mph N/A   Overcast
3:56 AM 64.9 °F 51.1 °F 61% 30.06 in 10.0 mi NNE 18.4 mph 31.1 mph N/A   Overcast
4:56 AM 64.0 °F 50.0 °F 60% 30.08 in 10.0 mi North 16.1 mph - N/A   Overcast
5:56 AM 63.0 °F 52.0 °F 67% 30.09 in 10.0 mi NNE 24.2 mph 32.2 mph 0.00 in Rain Light Rain
6:27 AM 63.0 °F 51.1 °F 65% 30.10 in 10.0 mi NNE 17.3 mph 24.2 mph 0.00 in   Overcast
6:56 AM 63.0 °F 51.1 °F 65% 30.11 in 10.0 mi NNE 18.4 mph 23.0 mph 0.00 in   Overcast
7:56 AM 63.0 °F 50.0 °F 63% 30.14 in 10.0 mi NNE 18.4 mph 25.3 mph N/A   Overcast
8:56 AM 63.0 °F 51.1 °F 65% 30.17 in 10.0 mi NNE 19.6 mph 26.5 mph N/A   Overcast
9:56 AM 63.0 °F 52.0 °F 67% 30.17 in 10.0 mi NNE 19.6 mph 28.8 mph N/A   Overcast
10:56 AM 63.0 °F 54.0 °F 72% 30.17 in 10.0 mi NNE 18.4 mph 28.8 mph N/A   Overcast
11:46 AM 62.1 °F 57.0 °F 84% 30.17 in 10.0 mi NE 15.0 mph 25.3 mph 0.00 in Rain Light Rain
11:56 AM 62.1 °F 55.9 °F 80% 30.18 in 10.0 mi ENE 12.7 mph 24.2 mph 0.00 in   Overcast
12:43 PM 64.9 °F 54.0 °F 68% 30.17 in 10.0 mi NE 16.1 mph 26.5 mph N/A   Overcast
12:56 PM 64.9 °F 53.1 °F 65% 30.17 in 10.0 mi NNE 18.4 mph - N/A   Overcast
1:56 PM 64.9 °F 54.0 °F 68% 30.16 in 10.0 mi NNE 20.7 mph 28.8 mph N/A   Overcast
2:56 PM 64.9 °F 55.0 °F 70% 30.15 in 10.0 mi NE 19.6 mph 27.6 mph N/A   Overcast
3:56 PM 64.9 °F 55.9 °F 73% 30.16 in 10.0 mi NE 16.1 mph - N/A   Overcast
4:56 PM 64.9 °F 57.0 °F 75% 30.16 in 10.0 mi NNE 13.8 mph 29.9 mph N/A   Overcast
5:56 PM 64.9 °F 57.9 °F 78% 30.16 in 10.0 mi NE 17.3 mph 27.6 mph N/A   Overcast
6:25 PM 66.0 °F 57.0 °F 73% 30.15 in 10.0 mi NE 21.9 mph 29.9 mph N/A   Overcast
6:56 PM 66.0 °F 57.0 °F 73% 30.16 in 10.0 mi NE 19.6 mph 27.6 mph N/A   Overcast
7:56 PM 64.0 °F 55.0 °F 73% 30.17 in 10.0 mi NE 21.9 mph 31.1 mph N/A   Overcast
8:14 PM 64.9 °F 55.0 °F 70% 30.17 in 10.0 mi NE 21.9 mph 29.9 mph 0.00 in Rain Light Rain
8:56 PM 63.0 °F 53.1 °F 70% 30.17 in 10.0 mi NE 23.0 mph 34.5 mph 0.00 in Rain Light Rain
9:38 PM 64.9 °F 53.1 °F 65% 30.17 in 10.0 mi NE 19.6 mph 31.1 mph 0.00 in   Overcast
9:56 PM 64.9 °F 53.1 °F 65% 30.18 in 10.0 mi NE 21.9 mph 28.8 mph 0.00 in   Overcast
10:28 PM 64.0 °F 54.0 °F 70% 30.18 in 10.0 mi NE 23.0 mph 28.8 mph 0.00 in Rain Light Rain
10:56 PM 64.0 °F 54.0 °F 70% 30.19 in 10.0 mi NE 20.7 mph - 0.00 in Rain Light Rain
11:56 PM 63.0 °F 55.9 °F 78% 30.18 in 10.0 mi NE 17.3 mph 24.2 mph 0.00 in Rain Light Rain